STARLINK-1445

decayed
NORAD ID: 45662 Int'l Des: 2020-035 Owner: SPXS Country: US Constellation: starlink
LEOCIRCULAR
Group

About STARLINK-1445

Description loading...

Altitude History

Altitude vs Time

uPlot chart will show altitude changes over time

Two-Line Element Set

1 45662U 20035F 24353.16550904 .06726882 12189-4 85598-3 0 9992
2 45662 53.0381 237.3309 0004506 233.4481 264.8043 16.35122598251537
Epoch: Dec 18, 2024 • Age: 6533 hours

Current Status

Position data unavailable
Launch Date Jun 4, 2020
Age 5.2 years
Decay Date Dec 19, 2024
Type internet

Technical Details

Classification Payload
Mass 260.00 kg
Dry Mass 248.00 kg
Total Mass 260.00 kg
Length 0.20 m
Diameter 2.80 m
Span 9.00 m
Shape Box + pan
Manufacturer SPXS
Bus Type Starlink
Phase Status Reentered
Owner/State SPXS/US

Large Constellations

Loading constellations...